星链-6036 (STARLINK-6036 )

导读 | 豆包AI

STARLINK-6036是美国太空探索技术公司(SpaceX)星链星座的一颗卫星,星链项目旨在构建全球卫星互联网星座。该卫星于2023年5月31日发射升空,发射国为美国,作为星链卫星互联网项目的组网卫星之一,它能为全球范围内用户提供低延迟、高速率的宽带互联网接入服务。

基本信息
目录编号:
56800
目录名称:
STARLINK-6036
国际标识:
2023-078AK
轨道中心:
EARTH
卫星名称:
星链-6036
卫星全名:
星链-6036 (STARLINK-6036 )
卫星状态:
在轨 (已飞行1065 天)
发射日期:
2023-05-31 UTC
国别 :
美国 (US)
星等 :
--
轨道信息
数据来源 国际轨道数据
星历时间: 2026-04-30T07:49:08+0800
8小时前
查看轨道信息
半长轴: 6950.171km
偏心率: 0.0003445
轨道倾角: 70.000°
近地点辐角 270.245°
升交点赤经 215.151°
平近点角 89.831°
近地点: 569.639km
远地点: 574.429km
周期: 96.107分钟
每日圈数: 14.983373
详细信息
固有亮度:
5
最大亮度:
2.5
卫星平台:
Starlink v1.5
覆盖范围:
全球
运营商:
太空探索技术公司
运营商所在国:
美国
制造商(研发单位):
太空探索技术公司
制造商所在国:
美国
使用方式:
暂无
卫星简介
星链(Starlink)计划是由太空探索技术公司(SpaceX)提出的一个巨型低轨卫星互联网星座项目,计划在2019年至2024年间在太空搭建由约1.2万颗卫星组成的“星链”网络,其中1584颗将部署在地球上空550千米处的近地轨道,并从2020年开始工作。该卫星仍在工作。
2D轨道图
3D轨道图
轨道高度分析图
轨道倾角分析图
轨道综合分析图
查看轨道综合分析图